Location: Carimao
(10.4546°N, 66.7419°W)
Time: 09:13:58
(UTC+00:00)

Cosmos 2150 Rocket - Pass Details

Date: 19 May 2024
Orbit: 747 x 806 km, 74.0° (Epoch: 22 June)

Event Time Altitude Azimuth Distance (km) Brightness Sun altitude
Rises 23:24:11 0° 356° (N) 3,275 7.6 -10.3°
Reaches altitude 10° 23:26:38 10° 2° (N) 2,354 6.8 -10.9°
Maximum altitude 23:31:49 50° 77° (ENE) 1,014 4.3 -12.1°
Enters shadow 23:36:49 11° 151° (SSE) 2,292 6.0 -13.2°
